DateTimeUTC,F1_A11,F1_S11,BsB_S11,BsG_S11,BsR_S11,BbsB_S11,BbsG_S11,BbsR_S11,BaB_A11,BaG_A11,BaR_A11,Tu_S11,T_S11,Uu_S11,U_S11,P_S11,T1_A11
2021-12-11T12:00:00Z,00000200,21000000,,,,,,,-000.15,0000.26,-000.20,20.6,27.5,,00.0,0650.9,31.2
2021-12-11T12:01:00Z,00000200,21000000,,,,,,,0000.25,-000.05,-000.03,20.6,27.5,,00.0,0650.9,31.2
2021-12-11T12:02:00Z,00000200,21000000,,,,,,,0000.08,0000.28,0000.21,20.6,27.5,,00.0,0650.9,31.2
2021-12-11T12:03:00Z,00000200,61000000,,,,,,,0000.30,-000.02,0000.50,20.6,27.6,,00.0,0650.9,31.2
2021-12-11T12:04:00Z,00000200,41000000,-000.27,-000.05,0000.13,-000.01,0000.26,0000.22,0000.12,0000.15,0000.09,20.9,27.4,,00.0,0651.8,31.2
2021-12-11T12:05:00Z,00000200,01000000,0000.25,0000.08,0000.32,0000.07,0000.03,0000.29,0000.36,0000.29,-000.12,21.0,27.4,,00.0,0651.9,31.2
2021-12-11T12:06:00Z,00000200,01000000,0000.16,-000.05,-000.04,0000.33,0000.27,0000.31,-000.00,0000.16,0000.01,21.1,27.4,,00.0,0651.9,31.2
2021-12-11T12:07:00Z,00000200,01000000,-000.22,0000.29,0000.09,0000.71,0000.35,0000.31,-000.07,0000.23,0000.12,21.1,27.5,,00.0,0651.9,31.2
2021-12-11T12:08:00Z,00000200,01000000,-000.55,0000.23,-000.10,-000.09,0000.07,0000.27,0000.21,0000.16,0000.25,21.1,27.4,,00.0,0651.9,31.2
2021-12-11T12:09:00Z,00000200,01000000,0000.49,0000.35,0000.00,0000.52,0000.37,0000.04,0000.53,-000.01,0000.33,21.0,27.4,,00.0,0651.9,31.2
2021-12-11T12:10:00Z,00000200,01000000,-000.15,-000.11,-000.21,0000.39,0000.18,0000.15,0000.18,0000.41,-000.16,20.9,27.4,,00.0,0651.8,31.1
2021-12-11T12:11:00Z,00000200,01000000,0000.04,-000.16,0000.12,-000.02,0000.20,-000.07,-000.12,-000.16,-000.16,20.8,27.3,,00.0,0651.8,31.1
2021-12-11T12:12:00Z,00000200,01000000,-000.49,0000.18,0000.38,-000.25,0000.32,0000.08,0000.28,-000.14,0000.27,20.8,27.3,,00.0,0651.8,31.1
2021-12-11T12:13:00Z,00000200,01000000,-000.52,0000.11,0000.19,0000.36,0000.20,0000.26,-000.04,0000.21,0000.28,20.7,27.3,,00.0,0651.8,31.1
2021-12-11T12:14:00Z,00000200,01000000,0000.15,-000.36,0000.20,0000.50,0000.24,0000.28,0000.36,0000.57,0000.05,20.8,27.3,,00.0,0651.8,31.1
2021-12-11T12:15:00Z,00000200,01000000,0000.58,0000.22,-000.04,-000.05,0000.22,0000.50,0000.01,-000.02,0000.15,20.8,27.3,,00.0,0651.7,31.2
2021-12-11T12:16:00Z,00000200,01000000,0000.77,-000.01,0000.06,-000.48,0000.13,-000.03,0000.40,0000.46,-000.15,20.8,27.3,,00.0,0651.7,31.2
2021-12-11T12:17:00Z,00000200,01000000,0000.27,0000.01,-000.18,0000.44,-000.03,-000.03,0000.05,-000.15,0000.31,20.9,27.3,,00.0,0651.7,31.2
2021-12-11T12:18:00Z,00000200,01000000,0000.38,0000.22,-000.16,0000.17,0000.19,0000.15,0000.04,0000.14,-000.06,20.9,27.3,,00.0,0651.7,31.2
2021-12-11T12:19:00Z,00000200,01000000,0000.18,0000.07,-000.04,0000.15,0000.14,-000.02,0000.14,0000.20,-000.05,21.0,27.3,,00.0,0651.7,31.2
2021-12-11T12:20:00Z,00000200,01000000,0000.51,0000.10,-000.39,0000.78,0000.09,-000.25,-000.00,0000.14,0000.09,21.0,27.3,,00.0,0651.7,31.2
2021-12-11T12:21:00Z,00000200,01000000,-000.24,0000.27,0000.05,0000.12,0000.22,0000.19,0000.46,0000.11,0000.41,20.9,27.3,,00.0,0651.7,31.2
2021-12-11T12:22:00Z,00000200,01000000,0000.11,0000.26,0000.05,-000.29,0000.39,0000.21,0000.13,-000.12,0000.10,20.9,27.3,,00.0,0651.7,31.2
2021-12-11T12:23:00Z,00000200,01000000,0000.76,-000.06,0000.29,0000.21,0000.21,0000.17,0000.15,0000.34,0000.13,20.8,27.3,,00.0,0651.7,31.1
2021-12-11T12:24:00Z,00000200,01000000,-000.08,0000.02,-000.00,0000.25,0000.10,0000.26,0000.03,0000.10,0000.34,20.7,27.2,,00.0,0651.7,31.1
2021-12-11T12:25:00Z,00000200,01000000,-000.38,0000.18,0000.16,-000.29,0000.15,-000.08,0000.38,0000.12,-000.18,20.6,27.2,,00.0,0651.6,31.1
2021-12-11T12:26:00Z,00000200,01000000,-000.30,0000.07,0000.08,0000.32,-000.13,0000.19,0000.11,0000.06,0000.18,20.5,27.1,,00.0,0651.6,31.1
2021-12-11T12:27:00Z,00000200,01000000,0000.44,0000.06,0000.33,0000.59,0000.07,0000.08,-000.06,0000.21,0000.39,20.4,27.1,,00.0,0651.6,31.1
2021-12-11T12:28:00Z,00000200,01000000,0000.12,-000.25,0000.20,0000.14,0000.48,0000.14,0000.42,0000.17,-000.33,20.4,27.0,,00.0,0651.6,31.1
2021-12-11T12:29:00Z,00000200,01000000,0000.40,-000.10,0000.33,0000.28,0000.17,0000.42,-000.16,0000.38,0000.25,20.5,27.0,,00.0,0651.6,31.1
2021-12-11T12:30:00Z,00000200,01000000,0000.22,0000.08,0000.06,-000.17,-000.10,-000.18,0000.45,0000.29,0000.29,20.5,27.0,,00.0,0651.6,31.1
2021-12-11T12:31:00Z,00000200,01000000,0000.27,0000.05,0000.06,0000.17,0000.07,-000.00,0000.18,0000.05,0000.08,20.5,27.0,,00.0,0651.7,31.2
2021-12-11T12:32:00Z,00000200,01000000,0000.24,0000.20,0000.10,-000.50,0000.15,0000.54,0000.27,0000.32,0000.28,20.6,27.1,,00.0,0651.6,31.2
2021-12-11T12:33:00Z,00000200,01000000,-000.36,-000.01,0000.13,-000.08,0000.06,0000.08,0000.20,0000.22,0000.03,20.6,27.1,,00.0,0651.6,31.1
2021-12-11T12:34:00Z,00000200,01000000,-000.05,-000.07,-000.04,-000.10,0000.38,0000.34,0000.18,0000.20,0000.06,20.6,27.1,,00.0,0651.6,31.2
2021-12-11T12:35:00Z,00000200,01000000,0000.40,-000.08,0000.07,-000.15,0000.31,0000.00,-000.06,-000.32,-000.14,20.6,27.1,,00.0,0651.6,31.2
2021-12-11T12:36:00Z,00000200,01000000,0000.02,-000.10,-000.07,0000.08,0000.09,-000.26,0000.13,0000.41,0000.35,20.7,27.2,,00.0,0651.6,31.2
2021-12-11T12:37:00Z,00000200,01000000,0000.22,-000.20,0000.13,0000.16,0000.43,-000.11,0000.20,0000.10,0000.35,20.7,27.2,,00.0,0651.6,31.2
2021-12-11T12:38:00Z,00000200,01000000,-000.16,0000.04,0000.26,0000.23,0000.24,0000.15,0000.19,0000.28,-000.33,20.7,27.2,,00.0,0651.6,31.2
2021-12-11T12:39:00Z,00000200,01000000,-000.01,-000.10,0000.06,0000.61,0000.25,0000.26,0000.36,0000.18,0000.32,20.7,27.2,,00.0,0651.6,31.2
2021-12-11T12:40:00Z,00000200,01000000,-000.71,0000.04,0000.02,0000.26,0000.20,0000.23,-000.06,0000.15,0000.30,20.6,27.1,,00.0,0651.6,31.1
2021-12-11T12:41:00Z,00000200,01000000,0000.12,0000.29,-000.01,0000.72,0000.20,0000.23,0000.53,-000.27,-000.24,20.5,27.1,,00.0,0651.5,31.1
2021-12-11T12:42:00Z,00000200,01000000,0000.64,-000.12,0000.19,-000.38,-000.06,-000.28,-000.32,0000.33,-000.10,20.5,27.0,,00.0,0651.6,31.1
2021-12-11T12:43:00Z,00000200,01000000,-000.55,0000.07,-000.01,0000.15,0000.59,0000.26,0000.19,0000.03,0000.38,20.4,27.0,,00.0,0651.5,31.1
2021-12-11T12:44:00Z,00000200,01000000,-000.47,0000.07,0000.65,0000.50,-000.07,0000.42,0000.26,0000.45,0000.23,20.4,27.0,,00.0,0651.5,31.2
2021-12-11T12:45:00Z,00000200,01000000,0000.45,0000.07,0000.13,-000.09,0000.13,-000.23,0000.19,0000.38,0000.40,20.4,27.0,,00.0,0651.5,31.2
2021-12-11T12:46:00Z,00000200,01000000,-000.41,-000.14,0000.57,0000.10,0000.39,0000.39,0000.23,-000.24,-000.34,20.5,27.1,,00.0,0651.5,31.2
2021-12-11T12:47:00Z,00000200,01000000,0000.19,0000.36,-000.01,-000.70,0000.25,0000.16,0000.13,0000.31,0000.09,20.5,27.1,,00.0,0651.5,31.2
2021-12-11T12:48:00Z,00000200,01000000,0000.25,0000.28,0000.51,0000.19,-000.24,0000.31,0000.30,0000.19,0000.22,20.5,27.1,,00.0,0651.5,31.2
2021-12-11T12:49:00Z,00000200,01000000,-000.25,0000.33,-000.24,0000.38,0000.23,0000.22,0000.24,0000.24,-000.03,20.5,27.1,,00.0,0651.5,31.2
2021-12-11T12:50:00Z,00000200,01000000,0000.57,0000.28,0000.27,0001.00,-000.22,0000.32,0000.18,0000.28,0000.53,20.5,27.1,,00.0,0651.5,31.2
2021-12-11T12:51:00Z,00000200,01000000,0000.18,0000.20,0000.29,0000.11,0000.28,0000.33,0000.45,-000.06,0000.10,20.5,27.1,,00.0,0651.5,31.2
2021-12-11T12:52:00Z,00000200,01000000,0000.10,0000.10,0000.12,0000.47,0000.13,-000.01,0000.27,0000.43,0000.36,20.5,27.1,,00.0,0651.5,31.2
2021-12-11T12:53:00Z,00000200,01000000,0000.58,-000.20,0000.02,0000.22,0000.07,0000.32,0000.12,0000.46,0000.05,20.5,27.1,,00.0,0651.4,31.2
2021-12-11T12:54:00Z,00000200,01000000,0000.09,0000.46,-000.04,0000.55,0000.36,0000.16,0000.53,0000.23,0000.19,20.6,27.1,,00.0,0651.5,31.2
2021-12-11T12:55:00Z,00000200,01000000,0000.63,0000.08,-000.06,-000.37,0000.27,0000.18,0000.44,0000.48,0000.73,20.6,27.2,,00.0,0651.5,31.2
2021-12-11T12:56:00Z,00000200,01000000,-000.41,0000.33,0000.05,0000.30,-000.01,-000.05,0000.57,0000.31,0000.29,20.6,27.2,,00.0,0651.4,31.2
2021-12-11T12:57:00Z,00000200,41000000,,,,,,,-000.86,-000.60,-001.02,20.7,27.2,,00.0,0651.4,31.2
2021-12-11T12:58:00Z,00000200,61000000,,,,,,,0000.25,0000.03,0000.45,20.4,27.3,,00.0,0650.5,31.2
2021-12-11T12:59:00Z,00000200,21000000,,,,,,,0000.18,0000.14,0000.20,20.4,27.4,,00.0,0650.5,31.2
